• En Colombia
  • Lista de países
  • Para 7 días
  • Temperatura del agua
  • El tiempo en el mapa
  • Informadores
  • user-avatar
    Iniciar sesión

    Tiempo cada hora Algiers

    Hoy, 18 Febrero, Martes

    Tiempo Temperatura Precipitaciones Viento Presión Humedad
    00:00 +15°C° 0 mm 1 mps 757 mmHg 91%
    01:00 +15°C° 0 mm 1 mps 757 mmHg 91%
    02:00 +14°C° 0 mm 1 mps 757 mmHg 92%
    03:00 +14°C° 0 mm 2 mps 756 mmHg 93%
    04:00 +14°C° 0 mm 2 mps 757 mmHg 93%
    05:00 +14°C° 0 mm 2 mps 757 mmHg 92%
    06:00 +15°C° 0 mm 2 mps 757 mmHg 92%
    07:00 +15°C° 0 mm 2 mps 757 mmHg 88%
    08:00 +16°C° 0 mm 3 mps 758 mmHg 85%
    09:00 +16°C° 0 mm 3 mps 758 mmHg 81%
    10:00 +16°C° 0 mm 3 mps 758 mmHg 79%
    11:00 +17°C° 0 mm 4 mps 758 mmHg 77%
    12:00 +16°C° 0 mm 5 mps 757 mmHg 75%
    13:00 +16°C° 0 mm 5 mps 757 mmHg 75%
    14:00 +16°C° 0 mm 5 mps 757 mmHg 75%
    15:00 +16°C° 0 mm 6 mps 756 mmHg 75%
    16:00 +15°C° 0 mm 6 mps 757 mmHg 77%
    17:00 +14°C° 0 mm 6 mps 757 mmHg 80%
    18:00 +14°C° 0 mm 6 mps 757 mmHg 83%
    19:00 +13°C° 0 mm 6 mps 757 mmHg 84%
    20:00 +13°C° 0 mm 6 mps 757 mmHg 85%
    21:00 +12°C° 0 mm 5 mps 758 mmHg 86%
    22:00 +12°C° 0 mm 5 mps 758 mmHg 87%
    23:00 +12°C° 0 mm 5 mps 758 mmHg 87%

    Mañana, 19 Febrero, Miércoles

    Tiempo Temperatura Precipitaciones Viento Presión Humedad
    00:00 +12°C° 0 mm 5 mps 758 mmHg 87%
    01:00 +12°C° 0 mm 5 mps 757 mmHg 86%
    02:00 +12°C° 0 mm 5 mps 757 mmHg 86%
    03:00 +11°C° 0 mm 6 mps 757 mmHg 86%
    04:00 +11°C° 0 mm 6 mps 757 mmHg 85%
    05:00 +11°C° 0 mm 6 mps 757 mmHg 84%
    06:00 +11°C° 0 mm 6 mps 758 mmHg 84%
    07:00 +13°C° 0 mm 6 mps 758 mmHg 81%
    08:00 +13°C° 0 mm 6 mps 758 mmHg 78%
    09:00 +13°C° 0 mm 6 mps 759 mmHg 75%
    10:00 +14°C° 0 mm 6 mps 759 mmHg 71%
    11:00 +15°C° 0 mm 6 mps 758 mmHg 66%
    12:00 +16°C° 0 mm 6 mps 758 mmHg 62%
    13:00 +15°C° 0 mm 6 mps 758 mmHg 63%
    14:00 +15°C° 0 mm 7 mps 757 mmHg 65%
    15:00 +15°C° 0 mm 7 mps 757 mmHg 67%
    16:00 +14°C° 0 mm 7 mps 757 mmHg 70%
    17:00 +13°C° 0 mm 6 mps 757 mmHg 74%
    18:00 +11°C° 0 mm 6 mps 757 mmHg 77%
    19:00 +10°C° 0 mm 5 mps 757 mmHg 78%
    20:00 +11°C° 0 mm 4 mps 757 mmHg 78%
    21:00 +11°C° 0 mm 3 mps 758 mmHg 78%
    22:00 +11°C° 0 mm 3 mps 757 mmHg 78%
    23:00 +11°C° 0 mm 3 mps 757 mmHg 78%

    Pasado mañana, 20 Febrero, Jueves

    Tiempo Temperatura Precipitaciones Viento Presión Humedad
    00:00 +12°C° 0 mm 2 mps 756 mmHg 78%
    01:00 +10°C° 0 mm 2 mps 756 mmHg 78%
    02:00 +10°C° 0 mm 2 mps 756 mmHg 78%
    03:00 +10°C° 0 mm 2 mps 755 mmHg 78%
    04:00 +10°C° 0 mm 2 mps 755 mmHg 77%
    05:00 +10°C° 0 mm 2 mps 755 mmHg 77%
    06:00 +10°C° 0 mm 2 mps 754 mmHg 77%
    07:00 +12°C° 0 mm 2 mps 754 mmHg 72%
    08:00 +14°C° 0 mm 2 mps 754 mmHg 67%
    09:00 +15°C° 0 mm 2 mps 755 mmHg 62%
    10:00 +16°C° 0 mm 3 mps 754 mmHg 59%
    11:00 +17°C° 0 mm 3 mps 754 mmHg 56%
    12:00 +18°C° 0 mm 4 mps 753 mmHg 53%
    13:00 +18°C° 0 mm 4 mps 753 mmHg 55%
    14:00 +18°C° 0 mm 4 mps 753 mmHg 56%
    15:00 +18°C° 0 mm 4 mps 752 mmHg 57%
    16:00 +17°C° 0 mm 4 mps 752 mmHg 62%
    17:00 +15°C° 0 mm 4 mps 752 mmHg 67%
    18:00 +14°C° 0 mm 4 mps 752 mmHg 72%
    19:00 +14°C° 0 mm 4 mps 753 mmHg 72%
    20:00 +14°C° 0 mm 4 mps 753 mmHg 71%
    21:00 +14°C° 0 mm 4 mps 753 mmHg 70%
    22:00 +14°C° 0 mm 4 mps 753 mmHg 70%
    23:00 +14°C° 0 mm 4 mps 753 mmHg 69%

    21 Febrero, Viernes

    Tiempo Temperatura Precipitaciones Viento Presión Humedad
    00:00 +14°C° 0 mm 4 mps 753 mmHg 69%
    01:00 +13°C° 0 mm 4 mps 753 mmHg 68%
    02:00 +13°C° 0 mm 3 mps 753 mmHg 67%
    03:00 +13°C° 0 mm 3 mps 753 mmHg 66%
    04:00 +13°C° 0 mm 4 mps 754 mmHg 67%
    05:00 +13°C° 0 mm 4 mps 754 mmHg 69%
    06:00 +13°C° 0 mm 5 mps 754 mmHg 71%
    13:00 +16°C° 0 mm 6 mps 756 mmHg 72%
    14:00 +15°C° 0 mm 6 mps 755 mmHg 74%
    15:00 +15°C° 0 mm 6 mps 755 mmHg 76%
    16:00 +14°C° 0 mm 5 mps 756 mmHg 79%
    17:00 +14°C° 0 mm 5 mps 756 mmHg 81%
    18:00 +13°C° 0 mm 5 mps 756 mmHg 84%
    19:00 +13°C° 0 mm 5 mps 757 mmHg 85%
    20:00 +12°C° 0 mm 4 mps 757 mmHg 85%
    21:00 +12°C° 0 mm 4 mps 758 mmHg 86%
    22:00 +12°C° 0 mm 4 mps 758 mmHg 86%
    23:00 +12°C° 0 mm 4 mps 758 mmHg 86%

    22 Febrero, Sábado

    Tiempo Temperatura Precipitaciones Viento Presión Humedad
    00:00 +12°C° 0 mm 4 mps 758 mmHg 86%
    01:00 +12°C° 0 mm 4 mps 758 mmHg 85%
    02:00 +12°C° 0 mm 4 mps 758 mmHg 84%
    03:00 +11°C° 0 mm 4 mps 758 mmHg 83%
    04:00 +11°C° 0 mm 4 mps 758 mmHg 83%
    05:00 +11°C° 0 mm 4 mps 759 mmHg 83%
    06:00 +10°C° 0 mm 4 mps 759 mmHg 83%
    07:00 +11°C° 0 mm 4 mps 759 mmHg 78%
    08:00 +12°C° 0 mm 4 mps 759 mmHg 73%
    09:00 +13°C° 0 mm 4 mps 760 mmHg 68%
    10:00 +14°C° 0 mm 5 mps 760 mmHg 64%
    11:00 +15°C° 0 mm 5 mps 760 mmHg 60%
    12:00 +16°C° 0 mm 6 mps 760 mmHg 57%
    13:00 +16°C° 0 mm 6 mps 760 mmHg 60%
    14:00 +16°C° 0 mm 6 mps 759 mmHg 62%
    15:00 +15°C° 0 mm 6 mps 759 mmHg 65%
    16:00 +14°C° 0 mm 6 mps 759 mmHg 69%
    17:00 +13°C° 0 mm 6 mps 760 mmHg 73%
    18:00 +12°C° 0 mm 5 mps 760 mmHg 77%
    19:00 +12°C° 0 mm 5 mps 760 mmHg 77%
    20:00 +12°C° 0 mm 5 mps 761 mmHg 78%
    21:00 +11°C° 0 mm 4 mps 761 mmHg 78%
    22:00 +11°C° 0 mm 4 mps 761 mmHg 78%
    23:00 +11°C° 0 mm 4 mps 761 mmHg 78%

    23 Febrero, Domingo

    Tiempo Temperatura Precipitaciones Viento Presión Humedad
    00:00 +11°C° 0 mm 3 mps 761 mmHg 77%
    01:00 +10°C° 0 mm 3 mps 761 mmHg 77%
    02:00 +10°C° 0 mm 3 mps 760 mmHg 76%
    03:00 +10°C° 0 mm 3 mps 760 mmHg 76%
    04:00 +10°C° 0 mm 3 mps 760 mmHg 76%
    05:00 +10°C° 0 mm 3 mps 760 mmHg 76%
    06:00 +10°C° 0 mm 3 mps 760 mmHg 76%
    07:00 +11°C° 0 mm 3 mps 761 mmHg 70%
    08:00 +12°C° 0 mm 3 mps 761 mmHg 65%
    09:00 +13°C° 0 mm 3 mps 761 mmHg 59%
    10:00 +14°C° 0 mm 3 mps 761 mmHg 56%
    11:00 +16°C° 0 mm 3 mps 761 mmHg 52%
    12:00 +17°C° 0 mm 3 mps 761 mmHg 49%
    13:00 +17°C° 0 mm 4 mps 760 mmHg 52%
    14:00 +17°C° 0 mm 4 mps 760 mmHg 55%
    15:00 +17°C° 0 mm 4 mps 759 mmHg 58%
    16:00 +15°C° 0 mm 4 mps 759 mmHg 65%
    17:00 +13°C° 0 mm 4 mps 759 mmHg 71%
    18:00 +12°C° 0 mm 3 mps 759 mmHg 78%
    19:00 +12°C° 0 mm 3 mps 760 mmHg 78%
    20:00 +12°C° 0 mm 3 mps 760 mmHg 78%
    21:00 +12°C° 0 mm 3 mps 760 mmHg 78%
    22:00 +12°C° 0 mm 3 mps 760 mmHg 77%
    23:00 +11°C° 0 mm 3 mps 760 mmHg 76%
    Mostrar más